Time,TemperatureF,DewpointF,PressureIn,WindDirection,WindDirectionDegrees,WindSpeedMPH,WindSpeedGustMPH,Humidity,HourlyPrecipIn,Conditions,Clouds,dailyrainin,SoftwareType,DateUTC
2013-01-16 00:10:00,-999.0,-99.9,30.52,North,-999,-999.0,-999.0,-999,0.00,,,0.00,weatherlink.com 1.10,2013-01-16 07:10:00,
2013-01-16 00:25:00,-999.0,-99.9,30.51,North,-999,-999.0,-999.0,-999,0.00,,,0.00,weatherlink.com 1.10,2013-01-16 07:25:00,
2013-01-16 00:40:00,-999.0,-99.9,30.51,North,-999,-999.0,-999.0,-999,0.00,,,0.00,weatherlink.com 1.10,2013-01-16 07:40:00,
2013-01-16 00:55:00,-999.0,-99.9,30.51,North,-999,-999.0,-999.0,-999,0.00,,,0.00,weatherlink.com 1.10,2013-01-16 07:55:00,
2013-01-16 01:10:00,-999.0,-99.9,30.50,North,-999,-999.0,-999.0,-999,0.00,,,0.00,weatherlink.com 1.10,2013-01-16 08:10:00,
2013-01-16 01:25:00,-999.0,-99.9,30.50,North,-999,-999.0,-999.0,-999,0.00,,,0.00,weatherlink.com 1.10,2013-01-16 08:25:00,
2013-01-16 01:40:00,-999.0,-99.9,30.50,North,-999,-999.0,-999.0,-999,0.00,,,0.00,weatherlink.com 1.10,2013-01-16 08:40:00,
2013-01-16 01:56:00,-999.0,-99.9,30.49,North,-999,-999.0,-999.0,-999,0.00,,,0.00,weatherlink.com 1.10,2013-01-16 08:56:00,
2013-01-16 02:11:00,-999.0,-99.9,30.50,North,-999,-999.0,-999.0,-999,0.00,,,0.00,weatherlink.com 1.10,2013-01-16 09:11:00,
2013-01-16 02:26:00,-999.0,-99.9,30.49,North,-999,-999.0,-999.0,-999,0.00,,,0.00,weatherlink.com 1.10,2013-01-16 09:26:00,
2013-01-16 02:41:00,-999.0,-99.9,30.50,North,-999,-999.0,-999.0,-999,0.00,,,0.00,weatherlink.com 1.10,2013-01-16 09:41:00,
2013-01-16 02:56:00,-999.0,-99.9,30.51,North,-999,-999.0,-999.0,-999,0.00,,,0.00,weatherlink.com 1.10,2013-01-16 09:56:00,
2013-01-16 03:11:00,-999.0,-99.9,30.50,North,-999,-999.0,-999.0,-999,0.00,,,0.00,weatherlink.com 1.10,2013-01-16 10:11:00,
2013-01-16 03:26:00,-999.0,-99.9,30.50,North,-999,-999.0,-999.0,-999,0.00,,,0.00,weatherlink.com 1.10,2013-01-16 10:26:00,
2013-01-16 03:41:00,-999.0,-99.9,30.51,North,-999,-999.0,-999.0,-999,0.00,,,0.00,weatherlink.com 1.10,2013-01-16 10:41:00,
2013-01-16 03:56:00,-999.0,-99.9,30.50,North,-999,-999.0,-999.0,-999,0.00,,,0.00,weatherlink.com 1.10,2013-01-16 10:56:00,
2013-01-16 04:11:00,-999.0,-99.9,30.50,North,-999,-999.0,-999.0,-999,0.00,,,0.00,weatherlink.com 1.10,2013-01-16 11:11:00,
2013-01-16 04:26:00,-999.0,-99.9,30.50,North,-999,-999.0,-999.0,-999,0.00,,,0.00,weatherlink.com 1.10,2013-01-16 11:26:00,
2013-01-16 04:41:00,-999.0,-99.9,30.50,North,-999,-999.0,-999.0,-999,0.00,,,0.00,weatherlink.com 1.10,2013-01-16 11:41:00,
2013-01-16 04:56:00,-999.0,-99.9,30.50,North,-999,-999.0,-999.0,-999,0.00,,,0.00,weatherlink.com 1.10,2013-01-16 11:56:00,
2013-01-16 05:11:00,-999.0,-99.9,30.50,North,-999,-999.0,-999.0,-999,0.00,,,0.00,weatherlink.com 1.10,2013-01-16 12:11:00,
2013-01-16 05:27:00,-999.0,-99.9,30.50,North,-999,-999.0,-999.0,-999,0.00,,,0.00,weatherlink.com 1.10,2013-01-16 12:27:00,
2013-01-16 05:42:00,-999.0,-99.9,30.50,North,-999,-999.0,-999.0,-999,0.00,,,0.00,weatherlink.com 1.10,2013-01-16 12:42:00,
2013-01-16 05:57:00,-999.0,-99.9,30.50,North,-999,-999.0,-999.0,-999,0.00,,,0.00,weatherlink.com 1.10,2013-01-16 12:57:00,
2013-01-16 06:12:00,-999.0,-99.9,30.49,North,-999,-999.0,-999.0,-999,0.00,,,0.00,weatherlink.com 1.10,2013-01-16 13:12:00,
2013-01-16 06:27:00,-999.0,-99.9,30.50,North,-999,-999.0,-999.0,-999,0.00,,,0.00,weatherlink.com 1.10,2013-01-16 13:27:00,
2013-01-16 06:42:00,-999.0,-99.9,30.49,North,-999,-999.0,-999.0,-999,0.00,,,0.00,weatherlink.com 1.10,2013-01-16 13:42:00,
2013-01-16 06:57:00,-999.0,-99.9,30.50,North,-999,-999.0,-999.0,-999,0.00,,,0.00,weatherlink.com 1.10,2013-01-16 13:57:00,
2013-01-16 07:12:00,-999.0,-99.9,30.50,North,-999,-999.0,-999.0,-999,0.00,,,0.00,weatherlink.com 1.10,2013-01-16 14:12:00,
2013-01-16 07:27:00,-999.0,-99.9,30.50,North,-999,-999.0,-999.0,-999,0.00,,,0.00,weatherlink.com 1.10,2013-01-16 14:27:00,
2013-01-16 07:42:00,-999.0,-99.9,30.50,North,-999,-999.0,-999.0,-999,0.00,,,0.00,weatherlink.com 1.10,2013-01-16 14:42:00,
2013-01-16 07:57:00,-999.0,-99.9,30.50,North,-999,-999.0,-999.0,-999,0.00,,,0.00,weatherlink.com 1.10,2013-01-16 14:57:00,
2013-01-16 08:12:00,-999.0,-99.9,30.51,North,-999,-999.0,-999.0,-999,0.00,,,0.00,weatherlink.com 1.10,2013-01-16 15:12:00,
2013-01-16 08:27:00,-999.0,-99.9,30.52,North,-999,-999.0,-999.0,-999,0.00,,,0.00,weatherlink.com 1.10,2013-01-16 15:27:00,
2013-01-16 08:42:00,-999.0,-99.9,30.52,North,-999,-999.0,-999.0,-999,0.00,,,0.00,weatherlink.com 1.10,2013-01-16 15:42:00,
2013-01-16 08:58:00,-999.0,-99.9,30.52,North,-999,-999.0,-999.0,-999,0.00,,,0.00,weatherlink.com 1.10,2013-01-16 15:58:00,
2013-01-16 09:13:00,-999.0,-99.9,30.52,North,-999,-999.0,-999.0,-999,0.00,,,0.00,weatherlink.com 1.10,2013-01-16 16:13:00,
2013-01-16 09:28:00,-999.0,-99.9,30.53,North,-999,-999.0,-999.0,-999,0.00,,,0.00,weatherlink.com 1.10,2013-01-16 16:28:00,
2013-01-16 09:43:00,-999.0,-99.9,30.54,North,-999,-999.0,-999.0,-999,0.00,,,0.00,weatherlink.com 1.10,2013-01-16 16:43:00,
2013-01-16 09:58:00,-999.0,-99.9,30.55,North,-999,-999.0,-999.0,-999,0.00,,,0.00,weatherlink.com 1.10,2013-01-16 16:58:00,
2013-01-16 10:13:00,-999.0,-99.9,30.55,North,-999,-999.0,-999.0,-999,0.00,,,0.00,weatherlink.com 1.10,2013-01-16 17:13:00,
2013-01-16 10:28:00,-999.0,-99.9,30.55,North,-999,-999.0,-999.0,-999,0.00,,,0.00,weatherlink.com 1.10,2013-01-16 17:28:00,
2013-01-16 10:43:00,-999.0,-99.9,30.55,North,-999,-999.0,-999.0,-999,0.00,,,0.00,weatherlink.com 1.10,2013-01-16 17:43:00,
2013-01-16 10:58:00,-999.0,-99.9,30.54,North,-999,-999.0,-999.0,-999,0.00,,,0.00,weatherlink.com 1.10,2013-01-16 17:58:00,
2013-01-16 11:13:00,12.6,10.0,30.55,SE,128,0.0,1.0,90,0.00,,,0.00,weatherlink.com 1.10,2013-01-16 18:13:00,
2013-01-16 11:28:00,13.8,12.0,30.55,NNE,32,1.0,1.0,91,0.00,,,0.00,weatherlink.com 1.10,2013-01-16 18:28:00,
2013-01-16 11:43:00,13.2,11.0,30.54,NE,47,0.0,0.0,89,0.00,,,0.00,weatherlink.com 1.10,2013-01-16 18:43:00,
2013-01-16 11:58:00,-999.0,-99.9,30.54,North,-999,-999.0,-999.0,-999,0.00,,,0.00,weatherlink.com 1.10,2013-01-16 18:58:00,
2013-01-16 12:13:00,-999.0,-99.9,30.53,North,-999,-999.0,-999.0,-999,0.00,,,0.00,weatherlink.com 1.10,2013-01-16 19:13:00,
2013-01-16 12:28:00,-999.0,-99.9,30.52,North,-999,-999.0,-999.0,-999,0.00,,,0.00,weatherlink.com 1.10,2013-01-16 19:28:00,
2013-01-16 12:44:00,-999.0,-99.9,30.52,North,-999,-999.0,-999.0,-999,0.00,,,0.00,weatherlink.com 1.10,2013-01-16 19:44:00,
2013-01-16 12:59:00,-999.0,-99.9,30.51,North,-999,-999.0,-999.0,-999,0.00,,,0.00,weatherlink.com 1.10,2013-01-16 19:59:00,
2013-01-16 13:14:00,-999.0,-99.9,30.50,North,-999,-999.0,-999.0,-999,0.00,,,0.00,weatherlink.com 1.10,2013-01-16 20:14:00,
2013-01-16 13:29:00,-999.0,-99.9,30.49,North,-999,-999.0,-999.0,-999,0.00,,,0.00,weatherlink.com 1.10,2013-01-16 20:29:00,
2013-01-16 13:44:00,-999.0,-99.9,30.50,North,-999,-999.0,-999.0,-999,0.00,,,0.00,weatherlink.com 1.10,2013-01-16 20:44:00,
2013-01-16 13:59:00,-999.0,-99.9,30.49,North,-999,-999.0,-999.0,-999,0.00,,,0.00,weatherlink.com 1.10,2013-01-16 20:59:00,
2013-01-16 14:14:00,21.3,19.0,30.49,ENE,76,1.0,2.0,90,0.00,,,0.00,weatherlink.com 1.10,2013-01-16 21:14:00,
2013-01-16 14:29:00,22.0,19.0,30.50,East,89,0.0,3.0,89,0.00,,,0.00,weatherlink.com 1.10,2013-01-16 21:29:00,
2013-01-16 14:44:00,22.9,20.0,30.50,East,89,1.0,1.0,89,0.00,,,0.00,weatherlink.com 1.10,2013-01-16 21:44:00,
2013-01-16 14:59:00,22.8,20.0,30.50,ENE,58,0.0,1.0,87,0.00,,,0.00,weatherlink.com 1.10,2013-01-16 21:59:00,
2013-01-16 15:14:00,23.7,20.0,30.51,ENE,78,0.0,0.0,87,0.00,,,0.00,weatherlink.com 1.10,2013-01-16 22:14:00,
2013-01-16 15:29:00,25.3,21.0,30.51,ENE,78,0.0,0.0,85,0.00,,,0.00,weatherlink.com 1.10,2013-01-16 22:29:00,
2013-01-16 15:44:00,26.5,21.0,30.52,North,355,0.0,0.0,80,0.00,,,0.00,weatherlink.com 1.10,2013-01-16 22:44:00,
2013-01-16 15:59:00,25.2,20.0,30.52,ENE,64,0.0,0.0,80,0.00,,,0.00,weatherlink.com 1.10,2013-01-16 22:59:00,
2013-01-16 16:14:00,24.9,20.0,30.53,SE,128,0.0,3.0,81,0.00,,,0.00,weatherlink.com 1.10,2013-01-16 23:14:00,
2013-01-16 16:29:00,23.9,19.0,30.53,East,99,0.0,3.0,82,0.00,,,0.00,weatherlink.com 1.10,2013-01-16 23:29:00,
2013-01-16 16:44:00,22.7,18.0,30.54,East,99,5.0,5.0,83,0.00,,,0.00,weatherlink.com 1.10,2013-01-16 23:44:00,
2013-01-16 16:59:00,21.1,17.0,30.55,East,94,0.0,3.0,84,0.00,,,0.00,weatherlink.com 1.10,2013-01-16 23:59:00,
2013-01-16 17:14:00,20.5,17.0,30.55,ENE,78,3.0,3.0,87,0.00,,,0.00,weatherlink.com 1.10,2013-01-17 00:14:00,
2013-01-16 17:29:00,-999.0,-99.9,30.56,North,-999,-999.0,-999.0,-999,0.00,,,0.00,weatherlink.com 1.10,2013-01-17 00:29:00,
2013-01-16 17:44:00,-999.0,-99.9,30.55,North,-999,-999.0,-999.0,-999,0.00,,,0.00,weatherlink.com 1.10,2013-01-17 00:44:00,
2013-01-16 18:00:00,-999.0,-99.9,30.56,North,-999,-999.0,-999.0,-999,0.00,,,0.00,weatherlink.com 1.10,2013-01-17 01:00:00,
2013-01-16 18:15:00,-999.0,-99.9,30.55,North,-999,-999.0,-999.0,-999,0.00,,,0.00,weatherlink.com 1.10,2013-01-17 01:15:00,
2013-01-16 18:30:00,-999.0,-99.9,30.56,North,-999,-999.0,-999.0,-999,0.00,,,0.00,weatherlink.com 1.10,2013-01-17 01:30:00,
2013-01-16 18:45:00,-999.0,-99.9,30.56,North,-999,-999.0,-999.0,-999,0.00,,,0.00,weatherlink.com 1.10,2013-01-17 01:45:00,
2013-01-16 19:00:00,-999.0,-99.9,30.56,North,-999,-999.0,-999.0,-999,0.00,,,0.00,weatherlink.com 1.10,2013-01-17 02:00:00,
2013-01-16 19:15:00,-999.0,-99.9,30.55,North,-999,-999.0,-999.0,-999,0.00,,,0.00,weatherlink.com 1.10,2013-01-17 02:15:00,
2013-01-16 19:30:00,-999.0,-99.9,30.55,North,-999,-999.0,-999.0,-999,0.00,,,0.00,weatherlink.com 1.10,2013-01-17 02:30:00,
2013-01-16 19:45:00,-999.0,-99.9,30.55,North,-999,-999.0,-999.0,-999,0.00,,,0.00,weatherlink.com 1.10,2013-01-17 02:45:00,
2013-01-16 20:00:00,-999.0,-99.9,30.56,North,-999,-999.0,-999.0,-999,0.00,,,0.00,weatherlink.com 1.10,2013-01-17 03:00:00,
2013-01-16 20:15:00,-999.0,-99.9,30.55,North,-999,-999.0,-999.0,-999,0.00,,,0.00,weatherlink.com 1.10,2013-01-17 03:15:00,
2013-01-16 20:30:00,-999.0,-99.9,30.55,North,-999,-999.0,-999.0,-999,0.00,,,0.00,weatherlink.com 1.10,2013-01-17 03:30:00,
2013-01-16 20:45:00,-999.0,-99.9,30.56,North,-999,-999.0,-999.0,-999,0.00,,,0.00,weatherlink.com 1.10,2013-01-17 03:45:00,
2013-01-16 21:00:00,-999.0,-99.9,30.56,North,-999,-999.0,-999.0,-999,0.00,,,0.00,weatherlink.com 1.10,2013-01-17 04:00:00,
2013-01-16 21:15:00,-999.0,-99.9,30.57,North,-999,-999.0,-999.0,-999,0.00,,,0.00,weatherlink.com 1.10,2013-01-17 04:15:00,
2013-01-16 21:31:00,-999.0,-99.9,30.57,North,-999,-999.0,-999.0,-999,0.00,,,0.00,weatherlink.com 1.10,2013-01-17 04:31:00,
2013-01-16 21:46:00,-999.0,-99.9,30.57,North,-999,-999.0,-999.0,-999,0.00,,,0.00,weatherlink.com 1.10,2013-01-17 04:46:00,
2013-01-16 22:01:00,-999.0,-99.9,30.57,North,-999,-999.0,-999.0,-999,0.00,,,0.00,weatherlink.com 1.10,2013-01-17 05:01:00,
2013-01-16 22:31:00,-999.0,-99.9,30.56,North,-999,-999.0,-999.0,-999,0.00,,,0.00,weatherlink.com 1.10,2013-01-17 05:31:00,
2013-01-16 22:46:00,-999.0,-99.9,30.56,North,-999,-999.0,-999.0,-999,0.00,,,0.00,weatherlink.com 1.10,2013-01-17 05:46:00,
2013-01-16 23:01:00,-999.0,-99.9,30.56,North,-999,-999.0,-999.0,-999,0.00,,,0.00,weatherlink.com 1.10,2013-01-17 06:01:00,
2013-01-16 23:16:00,-999.0,-99.9,30.55,North,-999,-999.0,-999.0,-999,0.00,,,0.00,weatherlink.com 1.10,2013-01-17 06:16:00,
2013-01-16 23:31:00,-999.0,-99.9,30.55,North,-999,-999.0,-999.0,-999,0.00,,,0.00,weatherlink.com 1.10,2013-01-17 06:31:00,
2013-01-16 23:46:00,-999.0,-99.9,30.56,North,-999,-999.0,-999.0,-999,0.00,,,0.00,weatherlink.com 1.10,2013-01-17 06:46:00,